Hourly Weather Río Gallegos

Today, 15 August, Saturday

Time Temperature Precipitation Wind Pressure Humidity
00:00 -3°C° 0.2 mm 10 mps 746 mmHg 78%
01:00 -3°C° 0 mm 10 mps 746 mmHg 69%
02:00 -4°C° 0 mm 9 mps 746 mmHg 70%
03:00 -4°C° 0 mm 9 mps 746 mmHg 71%
04:00 -5°C° 0 mm 9 mps 746 mmHg 72%
05:00 -5°C° 0 mm 8 mps 745 mmHg 73%
06:00 -5°C° 0 mm 8 mps 744 mmHg 74%
07:00 -4°C° 0 mm 7 mps 744 mmHg 74%
08:00 -4°C° 0.1 mm 9 mps 742 mmHg 66%
09:00 -3°C° 0.1 mm 12 mps 740 mmHg 58%
10:00 -2°C° 0.1 mm 14 mps 738 mmHg 50%
11:00 -1°C° 0 mm 13 mps 737 mmHg 59%
12:00 -1°C° 0 mm 13 mps 735 mmHg 67%
13:00 0°C° 0 mm 13 mps 734 mmHg 76%
14:00 -1°C° 0.1 mm 12 mps 734 mmHg 76%
15:00 -1°C° 0.1 mm 11 mps 733 mmHg 76%
16:00 -2°C° 0.1 mm 10 mps 733 mmHg 76%
17:00 -2°C° 0 mm 11 mps 733 mmHg 76%
18:00 -3°C° 0 mm 11 mps 733 mmHg 77%
19:00 -3°C° 0 mm 12 mps 733 mmHg 78%
20:00 -4°C° 0 mm 13 mps 733 mmHg 78%
21:00 -4°C° 0 mm 13 mps 732 mmHg 78%
22:00 -4°C° 0 mm 13 mps 732 mmHg 78%
23:00 -4°C° 0 mm 15 mps 732 mmHg 78%

Tomorrow, 16 August, Sunday

Time Temperature Precipitation Wind Pressure Humidity
00:00 -4°C° 0 mm 17 mps 731 mmHg 79%
01:00 -3°C° 0 mm 19 mps 731 mmHg 79%
02:00 -3°C° 0 mm 19 mps 732 mmHg 76%
03:00 -3°C° 0 mm 19 mps 733 mmHg 72%
04:00 -3°C° 0 mm 19 mps 734 mmHg 68%
05:00 -3°C° 0 mm 19 mps 735 mmHg 70%
06:00 -3°C° 0 mm 19 mps 737 mmHg 72%
07:00 -3°C° 0 mm 18 mps 738 mmHg 74%
08:00 -3°C° 0 mm 18 mps 739 mmHg 70%
09:00 -2°C° 0 mm 18 mps 740 mmHg 65%
10:00 -2°C° 0 mm 19 mps 742 mmHg 61%
11:00 -2°C° 0 mm 18 mps 742 mmHg 59%
12:00 -2°C° 0 mm 18 mps 743 mmHg 57%
13:00 0°C° 0 mm 17 mps 743 mmHg 55%
14:00 -2°C° 0 mm 16 mps 744 mmHg 59%
15:00 -1°C° 0 mm 14 mps 744 mmHg 62%
16:00 -2°C° 0 mm 12 mps 744 mmHg 66%
17:00 -2°C° 0 mm 10 mps 744 mmHg 69%
18:00 -1°C° 0 mm 8 mps 744 mmHg 72%
19:00 -2°C° 0 mm 6 mps 744 mmHg 75%
20:00 -2°C° 0.3 mm 6 mps 743 mmHg 77%
21:00 -2°C° 0.3 mm 7 mps 742 mmHg 79%
22:00 -2°C° 0.3 mm 7 mps 741 mmHg 81%
23:00 -2°C° 0 mm 8 mps 740 mmHg 81%

Day after tomorrow, 17 August, Monday

Time Temperature Precipitation Wind Pressure Humidity
00:00 -1°C° 0 mm 9 mps 740 mmHg 82%
01:00 -1°C° 0 mm 9 mps 739 mmHg 82%
02:00 -1°C° 0 mm 9 mps 738 mmHg 83%
03:00 -1°C° 0 mm 9 mps 738 mmHg 83%
04:00 -1°C° 0 mm 9 mps 737 mmHg 83%
05:00 -2°C° 0.1 mm 10 mps 737 mmHg 85%
06:00 -2°C° 0.1 mm 11 mps 736 mmHg 88%
07:00 -2°C° 0.1 mm 12 mps 736 mmHg 90%
08:00 -2°C° 0 mm 11 mps 736 mmHg 82%
09:00 -2°C° 0 mm 11 mps 735 mmHg 75%
10:00 -1°C° 0 mm 11 mps 735 mmHg 67%
11:00 -1°C° 0 mm 11 mps 734 mmHg 72%
12:00 -1°C° 0 mm 12 mps 734 mmHg 76%
13:00 -1°C° 0 mm 12 mps 733 mmHg 81%
14:00 -1°C° 0 mm 11 mps 734 mmHg 80%
15:00 0°C° 0 mm 10 mps 734 mmHg 79%
16:00 -1°C° 0 mm 9 mps 735 mmHg 78%
17:00 -1°C° 0 mm 9 mps 736 mmHg 79%
18:00 -2°C° 0 mm 10 mps 737 mmHg 81%
19:00 -2°C° 0 mm 10 mps 738 mmHg 82%
20:00 -2°C° 0 mm 11 mps 740 mmHg 81%
21:00 -2°C° 0 mm 11 mps 741 mmHg 81%
22:00 -2°C° 0 mm 12 mps 742 mmHg 81%
23:00 -2°C° 0.1 mm 12 mps 743 mmHg 82%

18 August, Tuesday

Time Temperature Precipitation Wind Pressure Humidity
00:00 -2°C° 0.1 mm 13 mps 744 mmHg 82%
01:00 -2°C° 0.1 mm 14 mps 745 mmHg 83%
02:00 -4°C° 0.1 mm 13 mps 747 mmHg 83%
03:00 -4°C° 0.1 mm 13 mps 748 mmHg 83%
04:00 -4°C° 0.1 mm 13 mps 749 mmHg 83%
05:00 -3°C° 0.1 mm 12 mps 750 mmHg 86%
06:00 -3°C° 0.1 mm 10 mps 752 mmHg 88%
07:00 -3°C° 0.1 mm 9 mps 753 mmHg 91%
08:00 -3°C° 0.2 mm 9 mps 754 mmHg 91%
09:00 -1°C° 0.2 mm 9 mps 756 mmHg 92%
10:00 -1°C° 0.2 mm 9 mps 757 mmHg 92%
11:00 -1°C° 0.3 mm 9 mps 758 mmHg 89%
12:00 -1°C° 0.3 mm 9 mps 759 mmHg 86%
13:00 -1°C° 0.3 mm 9 mps 760 mmHg 82%
14:00 -1°C° 0.2 mm 9 mps 761 mmHg 82%
15:00 -1°C° 0.2 mm 9 mps 762 mmHg 82%
16:00 -1°C° 0.2 mm 9 mps 763 mmHg 82%
17:00 -2°C° 0 mm 8 mps 764 mmHg 81%
18:00 -2°C° 0 mm 8 mps 765 mmHg 80%
19:00 -3°C° 0 mm 7 mps 766 mmHg 80%
20:00 -3°C° 0 mm 7 mps 766 mmHg 80%
21:00 -3°C° 0 mm 6 mps 767 mmHg 80%
22:00 -4°C° 0 mm 5 mps 768 mmHg 79%
23:00 -4°C° 0 mm 5 mps 768 mmHg 80%

19 August, Wednesday

Time Temperature Precipitation Wind Pressure Humidity
00:00 -4°C° 0 mm 5 mps 768 mmHg 80%
01:00 -3°C° 0 mm 4 mps 768 mmHg 80%
02:00 -4°C° 0 mm 5 mps 769 mmHg 80%
03:00 -5°C° 0 mm 5 mps 769 mmHg 80%
04:00 -5°C° 0 mm 5 mps 769 mmHg 81%
05:00 -5°C° 0 mm 6 mps 769 mmHg 76%
06:00 -5°C° 0 mm 6 mps 768 mmHg 72%
07:00 -4°C° 0 mm 7 mps 768 mmHg 68%
08:00 -3°C° 0 mm 7 mps 768 mmHg 64%
09:00 -2°C° 0 mm 7 mps 768 mmHg 60%
10:00 -1°C° 0 mm 8 mps 768 mmHg 57%
11:00 0°C° 0 mm 8 mps 768 mmHg 64%
12:00 +1°C° 0 mm 8 mps 767 mmHg 70%
13:00 +2°C° 0 mm 8 mps 767 mmHg 77%
14:00 +2°C° 0 mm 8 mps 767 mmHg 80%
15:00 +2°C° 0 mm 8 mps 766 mmHg 83%
16:00 +2°C° 0 mm 8 mps 766 mmHg 86%
17:00 +2°C° 0 mm 8 mps 766 mmHg 87%
18:00 +2°C° 0 mm 7 mps 766 mmHg 87%
19:00 +2°C° 0 mm 7 mps 766 mmHg 88%
20:00 +2°C° 0 mm 7 mps 766 mmHg 88%
21:00 +2°C° 0 mm 7 mps 765 mmHg 88%
22:00 0°C° 0 mm 7 mps 765 mmHg 88%
23:00 0°C° 0 mm 7 mps 765 mmHg 87%

20 August, Thursday

Time Temperature Precipitation Wind Pressure Humidity
00:00 0°C° 0 mm 7 mps 764 mmHg 87%
01:00 0°C° 0 mm 7 mps 764 mmHg 87%
02:00 +2°C° 0 mm 7 mps 764 mmHg 86%
03:00 +2°C° 0 mm 7 mps 764 mmHg 86%
04:00 +2°C° 0 mm 7 mps 763 mmHg 86%
05:00 +2°C° 0 mm 7 mps 764 mmHg 84%
06:00 +2°C° 0 mm 7 mps 764 mmHg 83%
07:00 +2°C° 0 mm 7 mps 764 mmHg 82%
08:00 +2°C° 0 mm 9 mps 764 mmHg 77%
09:00 +3°C° 0 mm 11 mps 764 mmHg 73%
10:00 +4°C° 0 mm 13 mps 765 mmHg 69%
11:00 +4°C° 0 mm 13 mps 764 mmHg 71%
12:00 +4°C° 0 mm 13 mps 764 mmHg 72%
13:00 +4°C° 0 mm 13 mps 764 mmHg 74%
14:00 +4°C° 0 mm 12 mps 764 mmHg 75%
15:00 +3°C° 0 mm 10 mps 764 mmHg 76%
16:00 +3°C° 0 mm 9 mps 764 mmHg 76%
17:00 +4°C° 0 mm 8 mps 764 mmHg 77%
18:00 +3°C° 0 mm 7 mps 764 mmHg 78%
19:00 +2°C° 0 mm 7 mps 763 mmHg 80%
20:00 +2°C° 0 mm 7 mps 763 mmHg 80%
21:00 +2°C° 0 mm 6 mps 763 mmHg 80%
22:00 +2°C° 0 mm 6 mps 763 mmHg 81%
23:00 +2°C° 0 mm 6 mps 762 mmHg 79%
Show more